DB0WV-6 Weather Reports


time (UTC)temp
C
wind
direction
speed
KPH
gust
KPH
rain 1hr
cm
rain 24hr
cm
rain mn
cm
humidity
%
barometer
mb
20260504050516 12 90 0.0 0.0 0.00 0.00 0.00 60 1013.1
20260504045515 12 90 0.0 0.0 0.00 0.00 0.00 62 1013.0
20260504044516 12 90 0.0 0.0 0.00 0.00 0.00 63 1012.9
20260504043516 11 76 0.0 4.8 0.00 0.00 0.00 64 1012.9
20260504042516 11 90 0.0 0.0 0.00 0.00 0.00 66 1012.8
20260504041536 11 90 0.0 0.0 0.00 0.00 0.00 69 1012.8
20260504040515 10 90 0.0 0.0 0.00 0.00 0.00 69 1012.9
20260504035516 11 90 0.0 0.0 0.00 0.00 0.00 68 1012.9
20260504034516 11 89 4.8 9.7 0.00 0.00 0.00 68 1012.8
20260504033515 11 82 1.6 4.8 0.00 0.00 0.00 67 1012.9
20260504032516 11 115 0.0 3.2 0.00 0.00 0.00 68 1013.1
20260504031516 11 170 3.2 6.4 0.00 0.00 0.00 68 1013.3
20260504030516 11 135 0.0 4.8 0.00 0.00 0.00 68 1013.3
20260504025515 11 90 0.0 0.0 0.00 0.00 0.00 67 1013.2
20260504024536 11 182 0.0 3.2 0.00 0.00 0.00 67 1013.3
20260504023516 11 179 0.0 1.6 0.00 0.00 0.00 65 1013.4
20260504022516 11 206 3.2 4.8 0.00 0.00 0.00 64 1013.5
20260504021516 12 223 4.8 4.8 0.00 0.00 0.00 62 1013.4
20260504020516 12 200 3.2 6.4 0.00 0.00 0.00 62 1013.3
20260504015515 12 125 1.6 6.4 0.00 0.00 0.00 59 1013.3
20260504014516 12 113 1.6 6.4 0.00 0.00 0.00 58 1013.3
20260504013536 12 105 3.2 6.4 0.00 0.00 0.00 58 1013.4
20260504012516 12 91 4.8 8.0 0.00 0.00 0.00 58 1013.2
20260504011516 12 83 3.2 6.4 0.00 0.00 0.00 58 1013.2
20260504010516 12 77 4.8 6.4 0.00 0.00 0.00 58 1013.3
20260504005513 12 81 6.4 11.3 0.00 0.00 0.00 60 1013.3
20260504004514 12 89 4.8 8.0 0.00 0.00 0.00 60 1013.4
20260504003513 12 90 0.0 0.0 0.00 0.00 0.00 62 1013.4
20260504002513 12 90 0.0 0.0 0.00 0.00 0.00 61 1013.3
20260504001514 12 90 0.0 0.0 0.00 0.00 0.00 61 1013.6
20260504000513 12 90 0.0 0.0 0.00 0.00 0.00 60 1013.7
20260503235513 12 90 0.0 0.0 0.00 0.00 0.00 60 1013.8
20260503234515 12 90 0.0 0.0 0.00 0.00 0.00 61 1013.8
20260503233513 12 90 0.0 0.0 0.00 0.00 0.00 63 1013.8
20260503232533 12 90 0.0 0.0 0.00 0.00 0.00 61 1013.8
20260503231514 12 90 0.0 0.0 0.00 0.00 0.00 61 1014.0
20260503230533 12 90 0.0 0.0 0.00 0.00 0.00 63 1013.9
20260503225513 12 90 0.0 0.0 0.00 0.00 0.00 62 1013.9
20260503224514 12 90 0.0 0.0 0.00 0.00 0.00 59 1013.9
20260503223513 12 90 0.0 0.0 0.00 0.00 0.00 60 1014.1
20260503222513 12 269 0.0 4.8 0.00 0.00 0.00 61 1014.1
20260503221513 12 255 0.0 4.8 0.00 0.00 0.00 61 1014.0
20260503220513 12 263 0.0 3.2 0.00 0.00 0.00 60 1013.9
20260503220014 13 276 0.0 4.8 0.00 0.00 0.00 60 1013.9
20260503215033 13 265 3.2 8.0 0.00 0.00 0.00 59 1013.9
20260503214013 13 255 3.2 9.7 0.00 0.00 0.00 58 1013.8
20260503213013 13 269 3.2 9.7 0.00 0.00 0.00 59 1013.6
20260503212013 13 270 3.2 11.3 0.00 0.00 0.00 58 1013.5
20260503211014 13 268 4.8 9.7 0.00 0.00 0.00 57 1013.5
20260503210014 13 255 4.8 9.7 0.00 0.00 0.00 57 1013.3
20260503205034 13 248 4.8 9.7 0.00 0.00 0.00 56 1013.3
20260503204014 13 254 4.8 12.9 0.00 0.00 0.00 57 1013.3
20260503203014 13 275 4.8 9.7 0.00 0.00 0.00 57 1013.1
20260503202014 13 278 4.8 14.5 0.00 0.00 0.00 56 1013.1
20260503201035 13 277 6.4 12.9 0.00 0.00 0.00 55 1013.0
20260503200017 13 269 6.4 12.9 0.00 0.00 0.00 55 1012.9
20260503195013 13 264 6.4 12.9 0.00 0.00 0.00 56 1012.8
20260503194014 13 272 6.4 12.9 0.00 0.00 0.00 56 1012.5
20260503193015 13 270 6.4 14.5 0.00 0.00 0.00 55 1012.5
20260503192014 14 275 8.0 16.1 0.00 0.00 0.00 53 1012.3
20260503191034 15 277 6.4 16.1 0.00 0.00 0.00 51 1012.4
20260503190014 15 284 6.4 11.3 0.00 0.00 0.00 48 1012.6
20260503185014 16 264 4.8 12.9 0.00 0.00 0.00 44 1012.7
20260503184014 16 257 6.4 14.5 0.00 0.00 0.00 42 1012.7
20260503183014 16 265 6.4 17.7 0.00 0.00 0.00 43 1012.4
20260503182014 17 272 9.7 19.3 0.00 0.00 0.00 42 1012.3
20260503181014 18 245 9.7 22.5 0.00 0.00 0.00 44 1012.4
20260503180014 19 248 4.8 16.1 0.00 0.00 0.00 46 1012.3
20260503175014 19 222 3.2 8.0 0.00 0.00 0.00 44 1012.1
20260503174014 20 255 4.8 9.7 0.00 0.00 0.00 43 1012.1
20260503173014 21 221 6.4 12.9 0.00 0.00 0.00 38 1012.3
20260503172014 21 202 4.8 9.7 0.00 0.00 0.00 36 1012.3
20260503171014 21 204 3.2 6.4 0.00 0.00 0.00 36 1012.2
20260503151014 23 229 9.7 16.1 0.00 0.00 0.00 29 1012.4
20260503131014 22 274 6.4 11.3 0.00 0.00 0.00 28 1013.2
20260503081015 19 241 8.0 14.5 0.00 0.00 0.00 46 1015.0
20260503072035 18 220 9.7 12.9 0.00 0.00 0.00 48 1014.7
20260503071015 18 225 6.4 11.3 0.00 0.00 0.00 48 1014.7